GW5848 Weather Reports


time (UTC)temp
C
wind
direction
speed
KPH
gust
KPH
rain 1hr
cm
rain 24hr
cm
rain mn
cm
humidity
%
barometer
mb
20260510020024 12 132 0.0 1.6 0.00 0.00 0.00 83 1010.4
20260510015512 12 132 0.0 0.0 0.00 0.00 0.00 82 1010.3
20260510014007 12 132 0.0 3.2 0.00 0.00 0.00 81 1010.1
20260510013505 13 132 0.0 3.2 0.00 0.00 0.00 80 1010.0
20260510013014 13 134 0.0 3.2 0.00 0.00 0.00 78 1009.9
20260510012506 13 47 0.0 4.8 0.00 0.00 0.00 76 1009.8
20260510012006 14 37 1.6 8.0 0.00 0.00 0.00 76 1009.7
20260510011520 15 205 1.6 8.0 0.00 0.00 0.00 73 1009.7
20260510010506 14 15 3.2 4.8 0.00 0.00 0.00 75 1009.7
20260510010021 15 105 0.0 4.8 0.00 0.00 0.00 74 1009.4
20260510005511 15 111 1.6 4.8 0.00 0.00 0.00 74 1009.4
20260510005011 15 90 0.0 1.6 0.00 0.00 0.00 75 1009.3
20260510004524 15 147 0.0 1.6 0.00 0.00 0.00 73 1009.2
20260510003507 16 15 1.6 3.2 0.00 0.00 0.00 71 1008.9
20260510002509 17 108 0.0 3.2 0.00 0.00 0.00 68 1008.6
20260510002014 17 79 0.0 3.2 0.00 0.00 0.00 67 1008.5
20260510001512 18 89 0.0 1.6 0.00 0.00 0.00 67 1008.5
20260510001012 18 89 0.0 1.6 0.00 0.00 0.00 64 1008.3
20260510000507 18 120 0.0 1.6 0.00 0.00 0.00 63 1008.3
20260510000020 19 120 0.0 1.6 0.00 0.00 0.00 60 1008.3
20260509235507 20 117 0.0 1.6 0.00 0.00 0.00 57 1008.3
20260509235013 21 117 0.0 1.6 0.00 0.00 0.00 54 1008.3
20260509234534 21 219 0.0 4.8 0.00 0.00 0.00 52 1008.3
20260509234011 21 219 0.0 4.8 0.00 0.00 0.00 49 1008.3
20260509233510 21 260 0.0 4.8 0.00 0.00 0.00 49 1008.3
20260509233025 21 264 1.6 6.4 0.00 0.00 0.00 49 1008.3
20260509231010 21 260 0.0 8.0 0.00 0.00 0.00 48 1008.2
20260509230513 22 262 3.2 9.7 0.00 0.00 0.00 45 1008.2
20260509230014 22 242 3.2 9.7 0.00 0.00 0.00 46 1008.2
20260509225507 22 255 1.6 16.1 0.00 0.00 0.00 45 1008.1
20260509225006 22 262 1.6 17.7 0.00 0.00 0.00 46 1008.1
20260509224505 22 276 3.2 17.7 0.00 0.00 0.00 45 1008.3
20260509224003 22 246 6.4 17.7 0.00 0.00 0.00 45 1008.2
20260509223503 22 241 6.4 19.3 0.00 0.00 0.00 45 1008.2
20260509223006 22 238 9.7 19.3 0.00 0.00 0.00 44 1008.2
20260509222503 22 214 3.2 14.5 0.00 0.00 0.00 44 1008.2
20260509222004 22 220 8.0 19.3 0.00 0.00 0.00 44 1008.2
20260509221506 22 237 8.0 19.3 0.00 0.00 0.00 44 1008.2
20260509221005 22 257 8.0 19.3 0.00 0.00 0.00 43 1008.2
20260509220014 22 219 6.4 12.9 0.00 0.00 0.00 44 1008.1
20260509215007 22 230 1.6 19.3 0.00 0.00 0.00 44 1008.2
20260509214515 22 220 11.3 20.9 0.00 0.00 0.00 44 1008.3
20260509214010 22 226 6.4 20.9 0.00 0.00 0.00 44 1008.2
20260509213004 22 207 6.4 12.9 0.00 0.00 0.00 47 1007.9
20260509212502 21 122 3.2 11.3 0.00 0.00 0.00 48 1007.9
20260509212003 21 145 6.4 11.3 0.00 0.00 0.00 48 1007.9
20260509211507 21 141 6.4 12.9 0.00 0.00 0.00 50 1007.9
20260509210505 21 133 8.0 14.5 0.00 0.00 0.00 49 1008.0
20260509210009 21 130 6.4 14.5 0.00 0.00 0.00 50 1007.8
20260509205006 22 153 8.0 14.5 0.00 0.00 0.00 48 1007.9
20260509204514 22 213 4.8 12.9 0.00 0.00 0.00 48 1007.9
20260509204008 22 167 9.7 14.5 0.00 0.00 0.00 46 1007.8
20260509203507 22 212 4.8 22.5 0.00 0.00 0.00 44 1007.7
20260509203018 23 191 9.7 25.7 0.00 0.00 0.00 45 1007.7
20260509202009 23 236 3.2 12.9 0.00 0.00 0.00 44 1007.6
20260509201524 23 200 4.8 14.5 0.00 0.00 0.00 42 1007.6
20260509201003 22 294 6.4 19.3 0.00 0.00 0.00 44 1007.7
20260509200506 22 162 8.0 19.3 0.00 0.00 0.00 46 1007.7
20260509200006 22 153 4.8 19.3 0.00 0.00 0.00 46 1007.7
20260509194007 23 253 4.8 19.3 0.00 0.00 0.00 38 1007.9
20260509193016 23 210 8.0 20.9 0.00 0.00 0.00 45 1008.1
20260509192507 22 206 3.2 22.5 0.00 0.00 0.00 42 1008.1
20260509191521 22 155 16.1 22.5 0.00 0.00 0.00 44 1008.2
20260509191007 22 261 4.8 17.7 0.00 0.00 0.00 47 1008.3
20260509190025 22 207 6.4 16.1 0.00 0.00 0.00 49 1008.3
20260509185503 22 243 9.7 16.1 0.00 0.00 0.00 47 1008.4
20260509185005 22 208 6.4 19.3 0.00 0.00 0.00 48 1008.5
20260509184508 22 234 6.4 19.3 0.00 0.00 0.00 49 1008.6
20260509183016 21 115 8.0 19.3 0.00 0.00 0.00 50 1008.8
20260509181011 21 169 6.4 20.9 0.00 0.00 0.00 55 1009.0
20260509180024 20 142 14.5 19.3 0.00 0.00 0.00 50 1009.1
20260509174002 20 231 8.0 11.3 0.00 0.00 0.00 52 1009.6
20260509172504 20 231 8.0 14.5 0.00 0.00 0.00 50 1009.8
20260509170507 20 269 4.8 9.7 0.00 0.00 0.00 51 1009.9
20260509165507 20 283 3.2 14.5 0.00 0.00 0.00 47 1009.9
20260509164009 20 288 9.7 16.1 0.00 0.00 0.00 49 1010.0
20260509162503 20 256 8.0 16.1 0.00 0.00 0.00 55 1009.8
20260509162003 20 245 8.0 16.1 0.00 0.00 0.00 53 1009.9
20260509160507 20 276 4.8 16.1 0.00 0.00 0.00 51 1010.0
20260509160018 20 283 6.4 14.5 0.00 0.00 0.00 56 1009.9
20260509155509 20 287 1.6 14.5 0.00 0.00 0.00 55 1009.9
20260509154011 19 223 8.0 19.3 0.00 0.00 0.00 55 1010.1
20260509151003 19 168 8.0 16.1 0.00 0.00 0.00 55 1009.9
20260509150503 19 167 9.7 19.3 0.00 0.00 0.00 55 1010.0
20260509145504 19 257 11.3 22.5 0.00 0.00 0.00 54 1010.1
20260509145007 19 221 8.0 16.1 0.00 0.00 0.00 59 1009.9
20260509144519 18 212 3.2 16.1 0.00 0.00 0.00 59 1010.0
20260509144008 18 177 6.4 16.1 0.00 0.00 0.00 61 1010.1
20260509143509 18 262 3.2 16.1 0.00 0.00 0.00 59 1010.0
20260509142508 17 215 8.0 16.1 0.00 0.00 0.00 61 1010.1
20260509142009 17 233 8.0 22.5 0.00 0.00 0.00 61 1010.4
20260509135504 16 218 8.0 16.1 0.00 0.00 0.00 63 1010.9
20260509135006 16 195 8.0 19.3 0.00 0.00 0.00 63 1011.0
20260509134004 16 219 11.3 19.3 0.00 0.00 0.00 63 1011.2
20260509133507 16 245 9.7 19.3 0.00 0.00 0.00 66 1011.2
20260509133020 16 145 6.4 14.5 0.00 0.00 0.00 65 1011.2
20260509132513 15 214 3.2 9.7 0.00 0.00 0.00 66 1011.2
20260509132010 15 137 1.6 8.0 0.00 0.00 0.00 66 1011.1
20260509131525 15 246 3.2 8.0 0.00 0.00 0.00 67 1011.1
20260509131014 15 119 3.2 6.4 0.00 0.00 0.00 68 1011.1
20260509130512 15 130 1.6 6.4 0.00 0.00 0.00 68 1011.1
20260509130026 14 169 1.6 4.8 0.00 0.00 0.00 69 1011.1
20260509125513 14 121 1.6 4.8 0.00 0.00 0.00 72 1011.0
20260509125013 13 158 1.6 6.4 0.00 0.00 0.00 73 1011.0
20260509124534 13 123 3.2 6.4 0.00 0.00 0.00 74 1011.0
20260509124012 13 158 0.0 4.8 0.00 0.00 0.00 73 1011.0
20260509123507 13 129 1.6 4.8 0.00 0.00 0.00 74 1011.0
20260509122508 12 96 0.0 4.8 0.00 0.00 0.00 76 1011.1
20260509122007 12 117 0.0 3.2 0.00 0.00 0.00 77 1011.2
20260509121518 12 110 1.6 3.2 0.00 0.00 0.00 76 1011.1
20260509121010 11 129 0.0 3.2 0.00 0.00 0.00 76 1011.0
20260509120510 11 108 0.0 4.8 0.00 0.00 0.00 77 1011.0
20260509120022 11 110 0.0 4.8 0.00 0.00 0.00 77 1011.0
20260509115508 11 116 0.0 3.2 0.00 0.00 0.00 77 1011.0
20260509115017 11 96 1.6 4.8 0.00 0.00 0.00 77 1011.0
20260509114525 11 96 1.6 4.8 0.00 0.00 0.00 76 1011.1
20260509114011 11 131 1.6 4.8 0.00 0.00 0.00 77 1011.2
20260509113509 11 122 1.6 4.8 0.00 0.00 0.00 76 1011.2
20260509113026 10 109 1.6 4.8 0.00 0.00 0.00 77 1011.2
20260509112510 10 115 1.6 4.8 0.00 0.00 0.00 76 1011.1
20260509112006 10 78 1.6 4.8 0.00 0.00 0.00 76 1011.1
20260509111534 10 91 1.6 6.4 0.00 0.00 0.00 77 1011.0
20260509111010 10 95 3.2 6.4 0.00 0.00 0.00 76 1011.0
20260509110506 10 123 0.0 6.4 0.00 0.00 0.00 76 1011.1
20260509110022 10 111 3.2 6.4 0.00 0.00 0.00 76 1011.1
20260509105503 10 85 1.6 6.4 0.00 0.00 0.00 76 1011.1
20260509105005 10 95 3.2 6.4 0.00 0.00 0.00 75 1011.1
20260509104523 10 101 3.2 6.4 0.00 0.00 0.00 76 1011.1
20260509104002 10 134 3.2 6.4 0.00 0.00 0.00 77 1011.2
20260509103502 10 89 1.6 8.0 0.00 0.00 0.00 76 1011.1
20260509103014 10 82 3.2 8.0 0.00 0.00 0.00 77 1011.2
20260509102508 10 126 4.8 8.0 0.00 0.00 0.00 77 1011.2
20260509102007 10 131 4.8 6.4 0.00 0.00 0.00 77 1011.2
20260509101523 10 128 4.8 8.0 0.00 0.00 0.00 79 1011.2
20260509101007 10 123 4.8 8.0 0.00 0.00 0.00 78 1011.2
20260509100506 10 114 3.2 8.0 0.00 0.00 0.00 76 1011.3
20260509100022 10 122 3.2 8.0 0.00 0.00 0.00 76 1011.2
20260509095506 10 103 3.2 8.0 0.00 0.00 0.00 75 1011.2
20260509095009 10 103 4.8 8.0 0.00 0.00 0.00 76 1011.2
20260509094504 10 73 4.8 8.0 0.00 0.00 0.00 75 1011.2
20260509094004 10 96 4.8 8.0 0.00 0.00 0.00 76 1011.2
20260509093503 10 113 4.8 8.0 0.00 0.00 0.00 76 1011.2
20260509093012 10 129 4.8 8.0 0.00 0.03 0.00 77 1011.3
20260509092503 10 110 4.8 6.4 0.00 0.03 0.00 77 1011.3
20260509092005 10 78 3.2 8.0 0.00 0.03 0.00 76 1011.5
20260509091514 10 123 1.6 8.0 0.00 0.03 0.00 76 1011.5
20260509091003 10 123 3.2 6.4 0.00 0.03 0.00 75 1011.3
20260509090507 10 115 1.6 6.4 0.00 0.03 0.00 75 1011.3
20260509090018 10 102 3.2 6.4 0.00 0.03 0.00 74 1011.4
20260509085506 10 100 3.2 6.4 0.00 0.03 0.00 75 1011.4
20260509085006 10 86 3.2 6.4 0.00 0.03 0.00 76 1011.4
20260509084519 10 119 3.2 4.8 0.00 0.03 0.00 76 1011.5
20260509084007 10 135 3.2 4.8 0.00 0.03 0.00 77 1011.5
20260509083509 10 122 1.6 6.4 0.00 0.03 0.00 75 1011.5
20260509083006 10 119 1.6 6.4 0.00 0.03 0.00 75 1011.5
20260509082503 10 127 3.2 12.9 0.00 0.03 0.00 75 1011.5
20260509082004 10 87 3.2 12.9 0.00 0.03 0.00 74 1011.6
20260509081508 10 98 3.2 6.4 0.00 0.03 0.00 75 1011.6
20260509081004 10 154 1.6 8.0 0.00 0.03 0.00 75 1011.6
20260509080504 10 91 4.8 9.7 0.00 0.03 0.00 76 1011.6
20260509080014 9 104 4.8 9.7 0.00 0.03 0.00 76 1011.6
20260509075503 9 96 4.8 6.4 0.00 0.03 0.00 77 1011.6
20260509075007 9 82 3.2 6.4 0.00 0.03 0.00 80 1011.8
20260509074516 9 143 3.2 6.4 0.00 0.03 0.00 79 1011.8
20260509074009 9 108 3.2 6.4 0.00 0.03 0.00 79 1011.8
20260509073506 9 128 1.6 3.2 0.00 0.03 0.00 79 1011.9
20260509073021 9 119 1.6 3.2 0.00 0.03 0.00 80 1012.0
20260509072507 9 119 1.6 4.8 0.00 0.03 0.00 81 1012.1
20260509072011 9 122 0.0 4.8 0.00 0.03 0.00 81 1012.0
20260509071522 9 132 1.6 4.8 0.00 0.03 0.00 80 1012.1
20260509071003 9 123 1.6 4.8 0.00 0.03 0.00 80 1012.1
20260509070504 9 120 1.6 6.4 0.00 0.03 0.00 81 1012.1
20260509070011 8 134 1.6 6.4 0.00 0.03 0.00 81 1012.1
20260509065508 9 136 3.2 4.8 0.00 0.03 0.00 80 1012.1
20260509065007 9 124 3.2 4.8 0.00 0.03 0.00 79 1012.1
20260509064525 9 115 3.2 8.0 0.00 0.03 0.00 77 1012.2
20260509064008 9 120 3.2 8.0 0.00 0.03 0.00 76 1012.2
20260509063509 9 100 3.2 6.4 0.00 0.03 0.00 76 1012.2
20260509063017 9 103 1.6 6.4 0.00 0.03 0.00 77 1012.3
20260509062508 9 98 3.2 6.4 0.00 0.03 0.00 77 1012.3
20260509062010 8 84 3.2 8.0 0.00 0.03 0.00 77 1012.4
20260509061535 8 96 3.2 8.0 0.00 0.03 0.00 78 1012.4
20260509061009 8 75 3.2 8.0 0.00 0.03 0.00 79 1012.4
20260509060510 8 104 3.2 8.0 0.00 0.03 0.00 79 1012.4
20260509060027 8 110 4.8 8.0 0.00 0.03 0.00 79 1012.5
20260509055504 8 128 3.2 6.4 0.00 0.03 0.00 79 1012.6
20260509054510 8 79 4.8 9.7 0.00 0.03 0.00 79 1012.7
20260509054005 8 94 4.8 9.7 0.00 0.03 0.00 79 1012.7
20260509053507 8 112 3.2 6.4 0.00 0.03 0.00 79 1012.8
20260509053028 8 95 3.2 6.4 0.00 0.03 0.00 79 1012.7
20260509052504 8 107 3.2 6.4 0.00 0.03 0.00 79 1012.8
20260509052007 8 92 1.6 4.8 0.00 0.03 0.00 79 1012.8
20260509051521 8 72 0.0 4.8 0.00 0.03 0.00 80 1012.8
20260509051008 8 70 1.6 4.8 0.00 0.03 0.00 80 1012.8
20260509050509 8 81 1.6 8.0 0.00 0.03 0.00 79 1012.8
20260509050025 8 135 0.0 8.0 0.00 0.03 0.00 79 1012.7
20260509045509 8 105 1.6 6.4 0.00 0.03 0.00 79 1012.7
20260509045009 8 83 1.6 6.4 0.00 0.03 0.00 79 1012.7
20260509044525 8 93 0.0 3.2 0.00 0.03 0.00 80 1012.7
20260509044007 8 79 0.0 3.2 0.00 0.03 0.00 82 1012.7
20260509043508 7 90 0.0 1.6 0.00 0.03 0.00 82 1012.7
20260509043010 8 107 0.0 1.6 0.00 0.03 0.00 80 1012.7
20260509042506 8 105 0.0 1.6 0.00 0.03 0.00 80 1012.5
20260509041516 8 110 0.0 3.2 0.00 0.03 0.00 78 1012.5
20260509041005 8 104 0.0 4.8 0.00 0.03 0.00 77 1012.5
20260509040506 8 112 1.6 4.8 0.00 0.03 0.00 77 1012.5
20260509040020 8 99 1.6 3.2 0.00 0.03 0.00 77 1012.7
20260509035509 8 116 0.0 4.8 0.00 0.03 0.03 77 1012.7
20260509035010 9 95 3.2 4.8 0.00 0.03 0.03 77 1012.7
20260509034533 9 90 0.0 3.2 0.00 0.03 0.03 76 1012.7
20260509034008 9 98 0.0 3.2 0.00 0.03 0.03 76 1012.7
20260509033512 9 97 1.6 4.8 0.00 0.03 0.03 75 1012.7
20260509033026 9 132 0.0 4.8 0.00 0.03 0.03 75 1012.7
20260509032515 10 101 1.6 4.8 0.00 0.03 0.03 75 1012.7
20260509032016 10 92 1.6 4.8 0.00 0.03 0.03 74 1012.8
20260509031511 10 105 3.2 4.8 0.00 0.03 0.03 74 1012.7
20260509030509 10 88 3.2 4.8 0.00 0.03 0.03 73 1012.8
20260509030017 10 82 3.2 4.8 0.00 0.03 0.03 73 1012.9
20260509025507 10 96 1.6 4.8 0.00 0.03 0.03 73 1012.9
20260509024525 10 108 1.6 3.2 0.00 0.03 0.03 73 1012.8
20260509023509 10 86 0.0 3.2 0.00 0.03 0.03 72 1013.0
20260509023023 11 107 0.0 3.2 0.00 0.03 0.03 72 1013.1
20260509022515 10 85 0.0 3.2 0.00 0.03 0.03 72 1013.0
20260509022009 11 93 0.0 1.6 0.00 0.03 0.03 73 1013.0
20260509021525 11 94 0.0 1.6 0.00 0.03 0.03 69 1012.9
20260509021009 11 98 0.0 1.6 0.00 0.03 0.03 69 1012.8
20260509020514 11 104 0.0 3.2 0.00 0.03 0.03 69 1012.7